Theta_e
308 306 304 304 306 307 309 312 317 316 313 315 325 338 339 341 340 341 342 344 345 343 342 343 342 341 341 342 341 338 339 337 338 335 335 333 333 333 333 332 331 331 332
306 305 303 302 302 303 306 311 310 312 318 313 314 334 337 340 340 341 341 341 344 341 342 345 342 341 341 342 341 340 340 339 338 337 336 334 335 335 334 334 334 332 331
303 303 302 300 299 300 302 305 307 310 319 314 313 314 335 336 338 338 341 340 343 342 339 342 343 342 340 341 342 338 337 337 338 336 335 334 333 334 335 335 334 334 333
301 301 300 299 297 297 299 300 303 307 311 314 313 314 320 335 336 337 340 342 342 342 340 340 340 341 339 337 341 341 338 336 336 335 335 335 336 333 334 335 334 333 334
299 299 297 297 296 295 296 297 299 303 308 311 314 313 315 325 334 337 339 341 341 343 340 339 339 340 339 336 340 341 338 336 335 335 334 334 334 333 332 332 333 334 333
298 296 295 294 294 294 293 295 298 299 303 308 313 318 315 316 331 335 337 339 341 341 340 339 337 337 341 341 339 340 337 335 335 334 334 333 333 333 333 331 331 331 332
297 296 294 293 293 292 292 294 295 295 301 305 310 315 319 318 322 334 336 337 339 339 339 337 335 337 340 340 338 337 335 334 334 334 333 333 333 333 333 331 330 328 330
296 295 293 292 291 291 291 292 293 294 296 303 307 310 314 318 323 332 335 336 337 339 339 337 336 337 339 338 337 334 334 333 332 329 329 330 329 331 332 329 329 327 330
296 294 293 291 291 290 290 291 292 292 295 299 304 306 310 311 313 322 332 336 337 340 340 340 339 339 339 337 335 334 333 328 327 326 327 330 330 329 329 328 329 327 329
295 294 292 291 290 289 289 290 290 291 292 296 300 303 303 304 305 310 317 319 335 337 339 339 339 338 337 335 334 331 331 331 330 329 329 330 331 332 333 331 334 333 331
294 293 292 290 290 289 289 289 289 290 291 293 296 300 301 301 302 304 307 309 313 320 324 322 323 331 333 334 332 332 332 333 332 331 330 331 332 333 333 332 331 333 333
294 292 292 291 290 289 289 289 290 289 290 291 295 293 296 297 297 299 303 303 305 310 312 313 314 315 317 319 323 327 330 331 332 333 333 333 332 332 332 332 332 334 333
293 292 291 291 290 289 289 289 290 290 290 291 292 292 293 294 295 295 300 301 302 303 305 308 309 310 310 312 314 315 317 319 322 326 329 329 330 330 331 330 331 332 332
293 292 292 291 289 289 289 289 289 289 290 290 290 291 292 292 292 294 296 297 299 299 300 302 303 304 306 305 305 306 308 310 313 317 319 322 326 329 328 328 331 330 328
293 292 292 290 289 288 288 289 289 289 290 290 290 290 291 291 291 292 293 295 295 296 297 298 299 300 299 293 296 297 297 300 302 306 309 314 317 321 324 327 327 327 327
294 292 291 290 288 287 288 288 288 288 288 289 289 290 290 290 291 291 291 292 294 294 294 294 295 296 293 292 292 293 293 296 297 298 301 304 308 314 318 322 325 326 327
293 292 291 289 287 286 287 287 287 287 287 287 288 288 289 290 289 290 291 291 292 292 293 293 292 291 290 287 286 286 289 291 293 295 297 299 302 305 309 315 322 325 326
291 290 290 288 286 285 286 286 286 286 286 286 287 287 288 288 288 288 289 290 291 290 290 290 291 290 289 287 286 285 287 289 292 293 295 299 303 306 308 311 317 324 324
289 289 289 287 286 285 285 285 285 286 286 286 286 286 287 287 287 287 287 287 289 288 288 288 288 287 287 285 284 284 286 287 288 289 290 292 296 302 309 313 316 321 324
288 287 287 286 285 285 285 285 285 285 285 286 286 286 286 286 285 285 285 285 285 286 285 286 286 285 285 284 284 283 284 285 285 287 289 289 290 295 301 304 313 321 319
286 286 286 285 284 284 284 284 284 285 285 285 285 286 285 285 285 284 284 283 283 283 283 283 283 283 283 282 283 282 282 283 284 285 287 287 287 290 296 302 307 315 321
285 284 284 284 284 284 283 283 283 284 284 285 285 285 285 285 285 284 283 282 281 281 281 281 281 281 280 281 281 282 282 282 284 284 284 284 285 287 291 295 300 310 311
285 284 283 283 283 283 282 282 283 283 283 284 284 284 284 284 285 284 283 282 281 280 280 280 280 280 279 280 281 281 281 281 281 282 282 282 282 285 287 288 292 297 302
285 283 283 282 282 282 281 281 282 282 283 283 283 283 283 284 284 285 283 282 281 280 280 279 279 279 279 279 280 280 279 280 281 281 280 280 280 280 281 283 285 288 290
284 283 282 282 281 281 280 280 281 281 282 282 282 282 282 283 283 283 283 282 280 279 279 279 279 279 279 279 280 280 279 279 279 280 280 280 280 279 280 280 281 282 284
284 283 281 281 280 280 279 279 280 281 281 281 281 282 282 282 282 282 283 283 282 279 278 278 279 278 278 278 278 279 278 278 277 276 277 278 279 279 279 280 280 280 281
Wind_Speed
22 28 32 37 43 44 44 41 42 46 36 31 26 36 35 35 34 38 36 30 40 40 37 31 32 32 30 28 28 31 23 22 20 25 9 17 18 18 20 17 17 18 18
22 28 31 33 36 41 42 40 43 49 41 34 30 31 39 38 38 37 40 45 35 41 46 32 33 36 31 26 31 32 23 18 21 9 5 3 7 18 25 27 21 19 21
22 23 30 31 36 37 41 42 42 46 43 34 35 37 38 39 39 39 36 45 36 43 49 40 30 37 35 29 30 32 32 20 16 18 7 3 5 6 19 27 26 22 22
23 21 28 31 31 34 37 39 41 43 45 35 34 34 26 34 37 39 40 37 43 42 44 45 43 32 37 38 26 32 32 28 20 19 27 23 10 2 1 13 23 25 26
22 22 27 33 32 32 34 36 39 40 42 45 30 35 34 32 41 39 40 39 43 41 42 46 48 35 34 33 33 34 34 32 26 24 16 24 25 28 9 4 7 21 22
21 24 31 32 33 35 37 37 35 37 39 40 38 29 33 29 38 44 42 35 36 36 39 41 41 45 31 36 39 39 38 33 36 36 32 25 12 16 12 6 7 8 19
19 19 22 28 30 32 36 36 36 40 38 36 35 30 29 31 36 50 42 38 32 35 37 42 40 41 39 38 42 39 37 41 39 34 35 27 25 23 22 17 5 2 14
18 17 23 28 29 31 32 33 34 37 40 36 31 24 20 25 29 47 40 41 40 39 39 41 42 42 42 36 40 36 35 30 31 27 26 27 26 27 31 24 13 4 8
17 18 25 26 30 31 31 32 33 37 38 38 30 24 21 18 22 17 23 36 43 40 38 39 40 38 37 36 38 38 39 27 27 28 27 26 27 30 31 28 29 14 7
17 16 21 25 29 32 32 36 36 37 37 31 27 23 28 30 35 25 18 21 33 30 29 27 22 28 32 33 33 25 22 21 25 24 24 26 25 27 27 29 23 21 19
14 14 21 25 29 34 38 37 41 39 35 31 29 27 29 34 37 34 21 26 33 37 28 19 17 12 15 25 24 25 28 25 22 22 23 26 25 25 26 26 25 25 23
13 14 21 24 28 34 38 34 37 33 33 32 26 33 26 32 42 37 25 26 31 28 23 22 20 17 15 1 5 10 14 15 17 17 20 23 23 25 25 24 25 25 26
14 14 20 22 24 27 29 28 29 31 34 27 29 30 35 35 37 31 26 35 36 19 28 23 21 18 13 11 11 11 13 13 16 20 25 28 28 27 28 30 31 31 31
13 13 15 21 26 27 26 27 29 33 31 29 31 28 36 33 33 26 39 40 39 38 31 25 21 18 11 9 12 13 13 13 13 16 20 24 27 30 29 28 27 27 28
15 14 14 20 26 29 32 32 29 30 27 25 30 33 30 31 35 32 30 30 33 30 28 26 23 16 13 20 20 17 17 18 22 22 21 20 20 21 27 30 30 30 29
13 16 17 21 24 29 30 33 35 35 35 35 33 33 32 31 22 24 30 34 30 20 20 20 18 15 15 21 19 18 20 20 23 26 31 34 36 34 31 26 39 35 28
14 15 16 20 22 27 28 29 30 32 33 36 37 40 34 31 32 28 31 31 24 16 18 19 21 18 19 30 25 25 17 15 19 22 24 28 29 34 41 43 34 44 45
16 16 19 20 23 25 25 27 28 28 29 28 29 32 30 30 29 31 29 26 23 26 25 27 25 19 19 28 32 33 20 17 19 22 24 27 29 30 31 34 32 37 41
18 19 20 21 22 26 26 25 28 29 28 30 28 28 27 28 30 30 29 32 25 25 26 22 20 26 26 32 34 38 29 25 25 23 26 25 28 28 32 36 33 34 36
19 21 21 20 22 24 24 25 26 29 30 30 29 28 27 28 30 28 31 25 21 22 24 23 26 24 27 31 36 36 29 25 26 29 25 26 27 32 29 28 27 30 30
18 20 20 21 23 25 26 26 28 29 28 26 25 26 28 26 24 26 24 26 27 28 28 27 28 31 32 34 33 34 29 26 24 21 27 30 35 36 35 29 23 24 30
16 18 18 20 22 25 26 26 27 28 28 27 27 26 26 25 25 26 24 27 29 27 28 27 27 29 33 34 32 29 26 25 22 24 26 31 31 30 31 29 27 25 21
13 16 16 18 21 23 25 25 28 28 28 27 27 28 28 29 28 25 27 29 30 29 28 28 28 30 33 34 33 32 34 30 29 26 25 27 30 32 31 30 27 23 18
12 14 16 17 20 22 23 24 26 27 26 25 26 27 27 29 29 26 28 27 28 29 31 32 30 31 34 37 37 36 38 32 29 28 30 33 34 32 31 35 33 27 21
11 14 16 16 18 21 23 25 26 25 24 24 24 24 24 25 25 24 21 22 25 29 29 29 27 29 31 36 33 34 37 35 31 29 31 36 37 35 35 33 31 30 27
12 12 14 16 18 19 21 23 25 24 23 23 24 24 24 24 23 22 22 22 18 25 28 28 30 28 29 32 32 31 34 36 33 32 31 31 32 32 32 31 30 29 28
Wind_Direction
355 349 344 337 332 331 330 331 317 320 280 279 262 232 226 217 227 213 210 206 199 200 198 206 198 199 199 205 202 209 220 212 213 205 216 229 236 244 241 245 231 231 233
349 347 344 337 335 327 324 325 325 321 287 264 262 241 232 223 215 222 215 208 204 209 202 200 200 201 197 207 203 203 209 212 209 176 159 204 238 240 242 233 234 231 229
348 342 340 340 333 329 327 326 323 316 304 259 258 260 242 229 226 222 215 212 205 206 205 203 196 196 196 200 208 207 207 209 210 213 172 188 223 198 227 227 231 234 237
352 341 338 337 332 329 327 327 325 323 327 258 251 257 253 234 222 220 215 205 202 198 201 201 203 198 202 206 206 197 197 202 203 217 226 240 256 223 199 211 227 227 236
350 344 341 333 334 334 331 332 334 333 330 325 266 254 249 249 233 220 221 202 201 197 190 198 203 200 196 202 203 185 192 199 197 205 209 231 249 263 227 219 226 223 232
350 349 344 341 335 336 336 338 339 340 338 333 323 304 258 252 237 225 217 207 192 182 185 192 200 206 207 199 200 196 195 202 205 210 212 212 187 213 217 226 229 228 241
356 351 348 338 339 339 342 336 340 342 338 339 331 321 290 268 248 232 203 206 196 197 186 188 195 199 205 199 197 195 199 207 207 209 214 215 217 230 252 248 236 159 299
0 349 344 344 342 339 341 342 345 350 342 337 331 330 321 296 289 238 202 204 200 196 191 185 192 198 199 192 199 200 206 202 209 214 215 219 225 237 241 238 216 228 231
355 348 343 345 343 346 347 342 352 351 339 342 338 2 16 7 344 304 226 216 190 187 183 183 189 194 188 186 199 203 204 209 223 230 233 234 232 235 241 244 236 212 246
348 343 338 348 347 352 349 354 357 360 341 349 339 13 26 34 27 2 31 316 159 163 164 173 166 165 178 188 198 205 207 227 241 242 237 230 231 234 231 239 239 228 233
343 340 340 346 349 357 357 355 2 351 339 346 351 11 26 34 39 17 9 356 63 100 112 104 94 170 168 188 203 216 228 234 236 241 234 233 233 230 233 241 247 243 234
342 341 348 350 356 360 354 348 0 346 344 346 9 23 15 37 38 29 354 36 31 66 90 90 80 46 41 299 229 238 242 248 246 245 241 235 234 240 241 243 247 242 243
351 348 356 0 357 354 349 345 352 355 355 353 10 31 24 22 39 20 4 40 48 24 56 71 71 59 8 9 331 333 311 285 271 264 262 259 257 255 250 253 251 250 245
355 355 358 1 2 355 352 357 356 4 4 10 15 28 32 23 36 7 14 32 42 23 31 49 64 59 29 13 356 355 324 316 303 283 273 267 262 252 249 250 246 245 252
3 3 3 3 3 357 357 356 2 12 5 8 15 33 33 30 28 19 19 36 43 34 31 32 43 56 48 27 5 347 321 310 301 291 284 279 281 271 266 245 244 243 243
9 3 5 10 5 359 357 356 0 7 5 15 20 17 28 30 27 32 21 29 39 39 45 46 45 40 42 11 355 349 332 317 307 302 295 283 278 270 271 277 253 244 241
9 4 9 13 11 1 356 360 1 6 11 14 13 15 15 21 22 25 32 32 31 25 37 41 46 35 30 13 5 0 346 324 305 300 300 292 285 277 270 267 274 249 247
6 2 9 15 11 6 2 1 8 11 11 20 18 15 15 20 17 23 21 29 26 27 26 28 27 24 17 7 6 2 353 343 327 318 311 298 287 280 272 271 273 255 249
6 0 6 16 10 7 4 6 8 12 14 15 18 18 16 19 21 20 17 21 17 20 29 30 26 27 14 7 8 3 355 351 339 327 316 313 304 298 293 270 260 262 246
7 0 5 13 11 6 6 9 10 10 12 10 11 15 16 25 26 19 21 19 18 23 27 24 24 20 13 10 10 3 355 343 335 331 328 336 340 332 312 306 277 252 234
7 5 6 13 10 4 8 13 7 9 4 6 13 20 21 22 27 28 23 20 20 24 23 22 20 17 12 9 5 1 357 347 327 328 336 339 342 344 337 321 299 275 258
12 10 10 11 8 9 11 12 7 4 4 7 13 17 20 22 25 28 24 26 27 27 21 20 21 16 11 9 4 358 352 356 350 352 345 341 342 349 350 341 325 294 280
20 19 16 12 10 13 14 10 2 6 5 12 15 12 14 17 21 28 25 27 25 25 23 20 17 12 9 6 3 3 2 5 11 5 358 359 2 4 360 357 349 338 315
38 29 20 16 10 13 16 12 3 7 7 14 12 13 15 15 16 20 28 29 25 23 22 18 15 12 10 6 4 6 6 9 13 14 14 16 16 15 9 8 3 359 351
34 34 22 16 14 15 13 9 7 10 9 15 10 15 17 15 15 21 27 39 44 38 26 17 15 14 14 11 11 16 15 15 18 21 24 22 19 14 10 7 6 5 6
29 33 24 17 13 15 13 10 7 12 15 19 10 13 14 13 15 16 17 28 42 43 33 25 21 21 18 18 20 23 24 24 25 30 27 20 20 16 10 7 4 5 6